GEFSNE_500_meanwind_024.txt.gz
Wind_Speed
22 22 23 23 22 25 27 27 26 24 22 21 19 18 16 16 16 16 17 18 18 18 17 17 17 16 16 16 17 18 19 20 20 21 22 22 22 22
20 20 21 22 23 23 26 29 29 29 27 25 23 21 20 19 19 18 18 19 19 19 19 18 18 18 18 18 18 18 19 19 19 20 20 21 21 22
19 20 21 22 23 23 25 28 31 32 31 29 27 25 24 22 21 20 20 21 21 21 20 20 20 20 19 19 19 19 19 19 19 19 19 20 20 21
18 19 20 21 23 23 24 27 31 33 34 32 31 30 28 26 24 23 22 22 22 22 22 22 22 21 21 20 20 20 20 20 20 20 20 20 20 21
18 18 19 20 21 23 24 26 30 32 34 34 34 34 32 30 28 26 25 24 24 24 24 24 23 23 23 22 21 21 22 21 21 22 22 22 22 22
20 20 19 19 19 21 23 24 27 30 33 34 36 36 35 34 32 31 29 28 26 25 26 26 26 25 24 24 24 24 24 23 23 24 24 24 24 24
22 21 21 20 20 20 21 23 24 27 29 34 36 37 37 36 35 34 33 32 30 29 30 29 29 28 27 27 27 27 26 26 26 26 26 26 26 27
23 22 22 21 20 20 20 21 23 25 27 31 34 36 37 37 36 35 34 33 32 33 32 31 31 31 31 30 30 30 30 30 30 30 29 29 29 28
23 23 22 21 20 19 19 20 21 22 24 25 27 30 34 36 37 36 35 33 34 35 34 33 33 34 34 33 32 32 32 32 32 32 31 30 30 30
22 23 23 23 22 21 21 20 20 21 22 23 25 27 30 32 34 35 35 34 34 34 34 34 36 36 35 34 33 33 33 34 34 33 33 32 31 31
23 23 23 24 23 23 22 22 22 22 21 22 23 25 26 28 31 33 34 34 34 34 35 34 35 36 35 34 34 33 34 34 34 34 34 33 33 32
24 24 24 24 24 24 23 23 23 23 23 23 23 24 25 27 28 30 31 32 33 34 35 34 35 36 35 35 35 35 35 35 35 35 35 34 34 34
23 24 24 25 25 24 24 24 24 24 24 24 25 25 25 25 26 28 30 31 32 34 35 36 36 37 36 36 37 37 37 37 37 37 37 37 36 36
24 24 25 25 25 25 24 24 24 24 24 25 26 26 26 26 26 27 28 30 32 33 35 36 37 38 39 39 39 40 40 40 39 39 39 39 39 38
24 25 24 24 24 24 24 24 24 25 25 26 26 26 27 27 27 27 28 29 30 32 34 36 37 38 39 40 41 42 42 42 42 42 42 42 41 41
26 26 25 24 24 24 24 24 25 25 25 25 26 26 26 26 27 28 29 29 30 31 32 34 36 38 39 40 41 41 42 44 44 45 45 45 44 43
23 24 24 24 23 23 23 23 23 23 23 24 25 26 26 26 26 27 28 29 30 30 31 32 33 34 36 37 38 40 42 43 44 45 46 45 45 45
18 19 19 19 19 20 20 21 22 22 23 23 24 25 26 26 27 28 29 29 30 31 32 33 34 35 36 37 39 40 42 44 45 45 46 46 46 47
10 12 13 13 14 16 17 18 19 20 21 22 23 24 25 26 27 28 29 30 31 32 33 33 34 35 36 37 38 39 40 42 44 45 44 45 46 47
2 5 7 8 9 11 13 15 17 18 19 20 22 23 25 26 28 29 31 32 33 34 34 35 36 37 37 38 39 39 41 42 42 43 44 44 45 46
3 2 2 4 6 8 10 12 14 16 18 20 22 23 25 27 29 30 32 33 34 35 36 37 38 38 39 40 40 40 41 42 42 42 42 43 43 44
6 3 2 2 4 6 8 10 12 14 17 19 21 23 25 26 28 29 31 32 33 35 36 37 38 38 39 40 40 41 42 42 43 43 43 42 42 42
10 8 7 6 5 5 6 8 10 12 14 16 19 21 22 24 25 27 29 30 32 33 35 36 37 38 38 39 40 40 41 42 42 42 42 42 42 42

GEFSNE_500_meanwind_030.txt.gz
Wind_Speed
25 26 27 27 25 26 25 24 24 26 27 26 24 21 20 20 20 20 20 21 21 21 21 21 21 21 21 21 21 21 22 22 23 24 25 26 25 25
22 23 23 23 25 25 25 24 25 26 27 27 26 23 21 21 21 20 19 20 20 21 21 21 21 21 21 20 20 21 21 21 22 23 23 24 24 25
22 21 22 21 21 22 24 25 25 26 28 29 28 27 25 24 23 22 21 20 21 21 21 21 21 21 21 21 20 20 21 21 21 22 22 23 23 24
22 21 21 21 21 21 22 23 24 25 26 29 30 29 28 27 26 24 23 22 22 22 21 21 21 22 21 21 22 22 22 22 22 22 23 23 23 23
22 22 21 21 21 21 21 22 22 22 25 27 29 31 31 31 30 29 27 26 25 24 23 23 23 23 23 23 23 23 24 24 24 24 24 24 24 24
22 23 23 22 22 21 22 22 22 22 24 25 28 30 33 33 33 32 31 31 29 27 26 26 25 25 25 25 25 25 26 26 25 25 25 25 25 25
22 22 23 23 23 23 22 22 22 23 22 23 24 27 30 34 35 35 35 34 33 32 31 30 28 27 27 27 28 28 28 28 28 28 27 27 27 27
23 23 23 23 23 24 23 23 22 23 22 23 24 25 27 30 34 36 37 36 35 36 35 34 32 31 31 31 31 31 30 30 30 30 30 30 30 30
23 23 24 24 24 23 23 23 23 23 23 24 25 25 27 29 30 33 36 37 38 38 37 37 36 35 36 35 33 33 33 33 32 33 33 32 32 32
22 22 23 23 23 23 23 23 23 23 23 23 24 24 25 28 29 30 33 36 38 39 40 39 38 38 37 36 35 35 35 35 35 35 35 35 35 35
22 22 22 22 22 22 23 23 23 23 23 23 23 24 25 26 27 28 30 31 33 36 38 38 39 40 39 38 37 36 37 37 37 37 37 36 36 36
20 21 22 22 21 22 22 23 23 23 23 24 24 24 24 24 25 26 28 30 31 34 36 37 39 40 39 39 39 38 38 38 38 38 38 38 37 37
20 21 21 22 22 22 22 22 22 23 23 24 25 25 25 25 25 25 26 28 29 31 33 34 35 37 38 38 39 39 39 39 40 39 39 39 39 38
21 21 21 22 22 22 22 22 22 22 23 23 24 24 25 26 26 26 27 28 28 29 29 31 32 33 35 36 37 38 39 40 40 40 41 41 40 40
20 21 21 22 22 22 22 22 22 22 22 22 23 24 25 26 26 27 28 28 29 30 30 31 32 33 34 35 36 37 38 39 40 41 42 43 43 43
19 19 20 21 21 21 21 21 21 21 21 22 23 24 25 26 27 28 28 29 29 30 31 32 32 33 34 35 36 37 38 39 40 42 42 43 44 44
15 17 18 18 19 19 19 19 19 20 20 21 22 23 24 25 26 27 28 29 29 30 31 31 32 33 34 35 36 37 38 38 39 40 42 42 43 44
9 11 12 13 14 14 15 16 16 17 18 19 20 21 22 23 24 25 26 27 29 30 31 32 32 33 34 35 36 37 38 38 39 39 40 41 42 43
5 4 4 5 6 8 9 10 11 13 15 16 18 19 21 22 23 24 25 26 28 29 31 33 34 35 35 36 37 38 38 39 40 40 41 41 42 42
7 5 4 2 1 2 3 5 7 9 11 13 15 16 18 19 21 23 24 26 28 30 31 33 34 35 36 37 38 39 41 41 41 42 43 43 43 43
11 10 8 7 5 4 3 4 6 8 9 11 12 14 16 18 20 22 24 26 28 29 31 33 34 36 37 38 39 40 42 42 43 43 44 44 44 44
15 14 13 12 10 9 8 7 7 8 9 10 11 13 14 17 19 21 23 25 26 28 30 32 34 35 36 38 39 40 41 42 43 44 44 44 44 44
18 17 16 15 14 13 12 12 11 11 11 12 13 14 15 16 18 20 22 23 25 26 28 30 32 33 34 36 37 38 39 40 41 42 42 43 44 44

GEFSNE_500_meanwind_036.txt.gz
Wind_Speed
22 23 23 24 23 24 23 23 24 25 26 26 27 26 26 25 24 22 22 23 25 26 27 27 27 27 26 26 25 25 25 25 25 26 27 27 28 28
22 22 22 22 22 22 22 22 22 24 25 26 27 27 26 26 25 23 22 23 23 24 25 26 26 26 26 25 25 25 25 25 25 25 26 26 27 27
21 21 21 21 21 21 22 22 22 23 23 25 27 27 27 27 27 25 24 23 23 23 23 24 25 25 25 25 25 25 25 25 25 25 25 25 25 26
21 22 21 21 21 21 22 22 21 21 22 24 26 27 27 27 28 27 26 24 24 23 23 23 23 24 24 24 24 24 24 24 24 24 24 24 25 25
21 22 22 22 21 21 22 22 21 21 21 21 22 24 25 26 28 29 28 27 26 25 25 24 23 23 24 24 24 24 24 24 24 24 24 24 24 25
22 22 22 22 22 22 22 22 22 21 21 20 21 21 23 26 27 28 29 29 29 28 27 26 25 25 25 25 25 25 25 25 25 25 25 25 25 26
22 22 22 23 23 23 23 23 23 22 22 22 22 21 22 24 25 26 29 30 31 31 31 29 29 28 28 28 27 27 27 27 27 27 27 27 27 27
22 23 23 23 23 23 23 24 24 23 23 23 22 22 22 22 23 24 28 30 31 32 33 33 33 32 32 30 30 30 30 30 30 29 29 30 30 30
23 22 22 23 23 23 23 23 24 24 24 24 23 23 23 22 23 24 25 27 31 33 34 34 34 34 34 34 34 34 34 34 33 33 33 33 33 33
22 22 22 22 22 22 22 23 23 24 23 24 24 23 23 23 24 24 24 25 27 29 31 32 34 35 36 36 36 37 38 38 38 37 37 37 37 36
22 21 21 21 21 21 21 21 22 23 23 23 24 24 23 23 24 24 25 26 27 28 29 31 33 34 35 36 37 38 39 40 41 41 40 40 40 39
21 20 20 20 20 20 20 20 21 21 22 23 23 23 23 23 23 23 24 24 26 27 29 30 32 33 33 35 36 37 39 40 41 42 42 42 43 42
19 19 18 19 19 18 18 19 20 20 20 21 22 23 23 23 23 23 24 24 25 26 27 28 29 30 32 33 35 35 36 38 40 41 42 42 43 44
18 18 18 18 19 18 18 18 18 19 19 20 20 21 22 22 23 23 24 25 26 26 27 28 28 30 31 32 33 34 35 36 37 39 40 42 42 43
16 17 17 17 17 17 17 17 17 17 17 18 19 20 20 21 22 23 24 25 26 27 28 29 30 31 32 33 34 35 36 36 37 37 39 40 41 42
14 14 14 15 15 16 16 16 16 16 16 17 18 19 19 21 22 23 23 25 26 27 29 30 31 32 33 34 34 35 36 38 39 39 40 40 41 42
8 9 10 11 11 12 13 13 13 13 14 15 15 16 17 19 20 21 23 24 25 27 28 30 31 33 34 35 35 36 37 38 39 40 40 41 42 43
3 3 4 5 5 6 7 8 9 9 10 11 12 13 14 16 18 19 21 22 24 25 27 29 30 32 34 35 36 37 38 39 41 42 42 42 43 44
7 5 3 2 1 1 0 2 3 4 5 7 8 10 12 14 16 17 19 21 23 25 27 29 30 32 33 35 36 38 39 40 42 43 44 44 45 45
12 10 9 8 7 6 5 4 3 2 3 4 6 9 11 12 14 15 17 19 21 23 25 27 29 31 33 34 36 37 39 40 41 42 43 44 45 45
16 15 13 12 11 10 9 8 7 6 5 6 7 8 9 10 12 13 15 17 19 21 24 26 27 29 31 32 34 35 37 38 39 40 41 43 43 44
18 18 17 15 14 13 12 11 10 9 9 8 9 9 10 11 11 13 15 16 18 20 22 24 25 27 29 30 31 32 34 35 36 38 39 40 41 42
18 18 17 17 15 14 14 13 13 12 12 12 12 12 12 12 13 14 15 16 17 19 21 22 23 25 26 27 27 28 30 31 32 34 35 36 38 39

GEFSNE_500_meanwind_042.txt.gz
Wind_Speed
24 24 25 26 26 25 25 25 25 25 24 24 24 24 24 24 25 26 25 26 25 24 25 25 26 27 27 28 28 27 27 27 27 27 27 28 29 29
24 24 25 25 25 25 25 25 25 25 24 25 25 25 24 23 24 25 25 25 25 25 25 25 25 26 27 27 27 27 27 27 26 26 26 27 27 28
24 24 25 25 25 25 25 25 25 25 24 24 25 24 24 24 23 24 25 25 26 26 25 25 25 25 26 26 26 26 26 26 26 25 25 26 26 27
24 24 25 25 25 25 25 25 24 24 24 24 25 24 23 24 24 23 24 25 26 26 26 25 25 25 25 25 25 26 26 25 25 25 25 26 26 26
23 24 24 24 25 25 24 24 24 24 24 23 24 24 23 23 24 24 24 24 25 26 26 26 26 25 25 25 25 25 25 25 25 26 26 25 25 25
23 24 24 24 24 24 24 24 23 23 23 23 24 24 23 22 22 23 24 25 25 26 27 27 27 27 26 26 26 26 26 26 26 26 26 26 25 25
23 22 23 23 23 23 24 24 24 24 24 24 24 23 23 22 22 22 22 22 23 25 26 27 27 28 28 28 28 28 27 27 27 27 27 27 27 27
22 22 22 22 22 23 23 23 23 23 23 23 24 23 23 22 22 21 21 20 20 23 25 25 26 27 29 29 30 30 30 30 30 30 30 30 29 29
22 22 22 22 22 21 22 22 22 22 22 22 22 22 22 22 22 21 21 20 20 20 21 22 25 27 28 28 29 31 32 33 33 33 33 33 32 32
22 21 21 21 21 21 20 21 21 21 21 21 21 21 21 20 20 20 20 20 19 19 21 21 22 24 26 28 30 31 32 34 36 36 36 36 37 36
20 20 20 20 20 20 19 18 18 18 19 19 19 19 19 19 19 19 19 18 19 20 21 21 22 23 25 26 27 29 31 33 34 36 37 38 39 39
17 17 17 18 18 17 16 16 16 16 16 16 17 17 17 17 18 18 18 18 18 18 19 20 20 21 22 23 25 26 28 30 32 33 34 36 38 39
14 14 14 14 14 14 14 14 14 14 14 14 14 15 15 16 16 16 17 17 18 18 19 20 20 21 21 23 24 25 26 28 29 31 33 34 36 37
11 11 12 11 12 12 12 12 12 12 12 12 13 13 13 13 14 14 15 16 17 18 19 20 21 22 23 24 25 27 27 28 29 31 32 34 35 36
7 8 9 9 9 10 10 11 11 11 11 11 11 11 11 12 13 14 14 15 17 18 19 20 21 22 24 25 26 28 30 31 32 33 34 35 36 37
3 4 5 5 6 7 7 8 9 9 9 9 9 10 10 11 12 13 14 15 16 18 19 20 21 23 24 26 28 29 31 32 33 35 36 36 37 38
2 1 1 1 2 2 3 4 5 5 6 7 7 8 9 9 11 12 13 14 15 17 19 20 21 23 25 27 29 30 32 33 35 36 37 38 39 40
7 6 5 4 2 1 1 1 1 2 3 4 5 6 7 8 9 11 12 13 15 16 17 19 21 23 24 26 28 30 31 32 34 35 36 37 39 40
12 11 10 8 7 7 6 5 4 4 4 4 4 4 6 7 9 10 12 13 14 16 17 18 20 21 23 25 27 29 30 31 32 33 33 34 35 37
15 15 14 13 11 10 9 8 8 7 7 6 6 7 7 8 9 11 12 14 15 16 18 19 20 22 23 25 26 27 28 29 30 30 31 32 33 33
17 16 15 15 14 14 13 12 11 10 10 10 10 10 10 10 11 12 14 15 16 18 19 20 21 22 24 25 26 26 26 27 27 28 28 29 30 31
18 17 16 16 15 14 14 13 13 13 12 12 12 11 11 12 12 13 15 16 18 19 21 22 23 24 25 25 26 26 25 25 25 26 26 26 26 27
18 17 16 15 15 14 14 14 13 13 13 13 13 12 12 13 13 14 15 17 19 21 22 23 24 25 26 26 26 26 25 24 24 25 24 24 24 24